Easton, MD

9:35 AM EDT on March 29, 2017 (GMT -0400)
Easton / Newnam

Weather History for KESN - November, 2012

Change the Weather History Date:

Tuesday, November 20, 2012

  Actual Average Record
Temperature  
Mean Temperature 45 °F -  
Max Temperature 53 °F 57 °F 73 °F (1953)
Min Temperature 37 °F 37 °F 22 °F (1959)
Degree Days  
Heating Degree Days 20    
Moisture  
Dew Point 42 °F    
Average Humidity 87    
Maximum Humidity 100    
Minimum Humidity 72    
Precipitation  
Precipitation 0.00 in - - ()
Sea Level Pressure  
Sea Level Pressure 30.19 in    
Wind  
Wind Speed 5 mph (NE)    
Max Wind Speed 8 mph    
Max Gust Speed -    
Visibility 10 miles    
Events      
Averages and records for this station are not official NWS values.
T = Trace of Precipitation, MM = Missing Value Source: NWS Daily Summary

Daily Weather History Graph

Daily Weather History Graph

Search for Another Location

Airport or City:

Trip Planner

Search our weather history database for the weather conditions in past years. The results will help you decide how hot, cold, wet, or windy it might be!

Date:

Astronomy

Nov. 20, 2012 Rise Set
Actual Time 6:52 AM EST 4:47 PM EST
Civil Twilight 6:23 AM EST 5:15 PM EST
Nautical Twilight 5:51 AM EST 5:48 PM EST
Astronomical Twilight 5:19 AM EST 6:20 PM EST
Moon 12:27 PM EST (11/20) No Moon Set
Length of Visible Light 10h 51m
Length of Day
9h 54m
Waxing Crescent, 51% of the Moon is Illuminated
Nov 20
Waxing Crescent
Nov 28
Full
Dec 6
Last Quarter
Dec 13
New
Dec 20
First Quarter

Hourly Weather History & Observations

Time (EST) Temp. Windchill Dew Point Humidity Pressure Visibility Wind Dir Wind Speed Gust Speed Precip Events Conditions
12:00 AM 48.2 °F - 43.7 °F 84% 30.24 in 10.0 mi NE 8.1 mph - N/A   Overcast
12:22 AM 47.8 °F - 43.7 °F 86% 30.24 in 10.0 mi NE 6.9 mph - N/A   Overcast
12:43 AM 47.5 °F - 43.7 °F 87% 30.23 in 10.0 mi NE 5.8 mph - N/A   Overcast
1:04 AM 47.3 °F - 43.7 °F 87% 30.23 in 10.0 mi NE 6.9 mph - N/A   Overcast
1:26 AM 47.3 °F - 43.7 °F 87% 30.23 in 10.0 mi NE 5.8 mph - N/A   Overcast
1:47 AM 46.8 °F - 43.7 °F 89% 30.21 in 10.0 mi ENE 5.8 mph - N/A   Overcast
2:08 AM 46.4 °F 44.3 °F 44.6 °F 93% 30.21 in 10.0 mi NE 4.6 mph - N/A   Overcast
2:30 AM 46.6 °F - 43.7 °F 90% 30.22 in 10.0 mi NE 4.6 mph - N/A   Overcast
2:51 AM 46.6 °F - 43.7 °F 90% 30.21 in 10.0 mi NNE 5.8 mph - N/A   Overcast
3:12 AM 46.6 °F - 43.7 °F 90% 30.21 in 10.0 mi NE 4.6 mph - N/A   Overcast
4:16 AM 46.4 °F 44.3 °F 43.7 °F 90% 30.21 in 10.0 mi NNE 4.6 mph - N/A   Overcast
4:38 AM 46.4 °F 43.5 °F 43.7 °F 90% 30.21 in 10.0 mi NNE 5.8 mph - N/A   Overcast
4:59 AM 46.4 °F 44.3 °F 43.7 °F 90% 30.21 in 10.0 mi NE 4.6 mph - N/A   Overcast
5:20 AM 46.0 °F 43.9 °F 43.7 °F 92% 30.21 in 10.0 mi NE 4.6 mph - N/A   Overcast
5:50 AM 46.4 °F 43.5 °F 44.6 °F 93% 30.21 in 10.0 mi NNE 5.8 mph - N/A   Overcast
6:24 AM 45.5 °F 42.5 °F 43.5 °F 93% 30.21 in 10.0 mi NE 5.8 mph - N/A   Overcast
6:38 AM 45.5 °F 42.5 °F 43.3 °F 92% 30.21 in 10.0 mi NE 5.8 mph - N/A   Overcast
6:50 AM 44.6 °F 41.4 °F 44.6 °F 100% 30.21 in 10.0 mi NNE 5.8 mph - N/A   Overcast
7:55 AM 46.4 °F 44.3 °F 44.6 °F 93% 30.22 in 10.0 mi ENE 4.6 mph - N/A   Mostly Cloudy
8:50 AM 46.4 °F 42.9 °F 44.6 °F 93% 30.22 in 10.0 mi NE 6.9 mph - N/A   Mostly Cloudy
9:52 AM 50.0 °F - 44.6 °F 82% 30.21 in 10.0 mi ENE 4.6 mph - N/A   Mostly Cloudy
10:50 AM 53.6 °F - 44.6 °F 72% 30.20 in 10.0 mi NE 5.8 mph - N/A   Mostly Cloudy
11:50 AM 53.6 °F - 44.6 °F 72% 30.17 in 10.0 mi NNE 4.6 mph - N/A   Mostly Cloudy
12:50 PM 53.6 °F - 44.6 °F 72% 30.16 in 10.0 mi North 6.9 mph - N/A   Overcast
1:50 PM 53.6 °F - 44.6 °F 72% 30.14 in 10.0 mi NNE 6.9 mph - N/A   Overcast
2:53 PM 53.6 °F - 44.6 °F 72% 30.13 in 10.0 mi NNE 5.8 mph - N/A   Overcast
3:53 PM 50.0 °F - 44.6 °F 82% 30.14 in 10.0 mi North 5.8 mph - N/A   Overcast
4:53 PM 48.2 °F - 42.8 °F 82% 30.13 in 10.0 mi NNE 5.8 mph - N/A   Overcast
5:53 PM 46.4 °F 43.5 °F 41.0 °F 81% 30.14 in 10.0 mi NNE 5.8 mph - N/A   Overcast
6:53 PM 44.6 °F - 39.2 °F 81% 30.15 in 10.0 mi Calm Calm - N/A   Overcast
7:53 PM 42.8 °F - 39.2 °F 87% 30.17 in 10.0 mi Calm Calm - N/A   Overcast
8:53 PM 42.8 °F - 37.4 °F 81% 30.16 in 10.0 mi Calm Calm - N/A   Mostly Cloudy
9:59 PM 41.2 °F - 37.4 °F 86% 30.16 in 10.0 mi Calm Calm - N/A   Clear
10:20 PM 39.4 °F - 37.2 °F 92% 30.16 in 10.0 mi Calm Calm - N/A   Clear
10:42 PM 39.9 °F - 37.0 °F 89% 30.16 in 10.0 mi Calm Calm - N/A   Clear
11:03 PM 40.1 °F - 37.8 °F 91% 30.16 in 10.0 mi Calm Calm - N/A   Clear
11:24 PM 37.4 °F 34.9 °F 36.9 °F 98% 30.17 in 10.0 mi NNW 3.5 mph - N/A   Clear
11:46 PM 37.4 °F - 37.4 °F 100% 30.17 in 10.0 mi Calm Calm - N/A   Clear